Torna al catalogo

ONEWEB-0422

AttivoComunicazioniPO
NORAD 51626·PAYLOAD·🇬🇧 United Kingdom

Lanciato Feb 10, 2022 da Guiana Space Centre

Loading…

Prossimi Passaggi (prossime 24 ore)

TLE

AggiornatoSource: CelesTrak SupGP

Epoca: Sep 14, 2026, 20:32 UTC

1 51626C 22012E   26257.85573333 -.00002863  00000+0 -73830-2 0  2576
2 51626  87.9206 348.0541 0002091  85.3371  26.9396 13.17652645    14

Traccia ONEWEB-0422 in tempo reale con AllMySat

Download on the App Store